"Pseudo-MPEC" for C14VHC2

Created 2019 Oct 10 19:07:09 UT using Find_Orb

Click here for an explanation of pseudo-MPECs

 
 Astrometry: 
     C14VHC2  C2019 10 08.33120 01 52 01.06 +24 13 59.3    ~A88q 20.9 GVNEOCPG96
     C14VHC2  C2019 10 08.33818 01 52 15.03 +24 13 41.7    ~A88q 20.6 GVNEOCPG96
     C14VHC2  C2019 10 08.34330 01 52 25.33 +24 13 28.7    ~A88q 20.4 GVNEOCPG96
     C14VHC2  C2019 10 08.36714201 53 10.71 +24 12 07.7    ~A89q 20.5 GVNEOCPH01
     C14VHC2  C2019 10 08.37023501 53 16.84 +24 11 58.4    ~A89q 20.5 GVNEOCPH01
     C14VHC2  C2019 10 08.38798301 53 52.12 +24 11 06.1    ~A89q 20.4 GVNEOCPH01
     C14VHC2  C2019 10 08.39427701 54 04.61 +24 10 46.9    ~A89q 20.5 GVNEOCPH01
     C14VHC2  C2019 10 09.45455 02 26 30.84 +23 18 23.5    ~A9BM 21.1 GVNEOCPG96
     C14VHC2  C2019 10 09.45513 02 26 31.66 +23 18 21.4    ~A9BM 20.4 GVNEOCPG96
     C14VHC2  C2019 10 09.45571 02 26 32.49 +23 18 19.3    ~A9BM 21.0 GVNEOCPG96
     C14VHC2  C2019 10 09.45629 02 26 33.27 +23 18 17.4    ~A9BM 20.8 GVNEOCPG96
     C14VHC2  C2019 10 10.40499 02 47 52.21 +22 29 57.2    ~AACb 23.2 GVNEOCPI52
     C14VHC2  C2019 10 10.41347 02 48 00.73 +22 29 29.7    ~AACb       VNEOCPI52
     C14VHC2  C2019 10 10.41920 02 48 06.49 +22 29 11.7    ~AACb 21.8 GVNEOCPI52

Station data:
(G96) Mt. Lemmon Survey  (N32.442754 W110.788720)  US/Arizona.  Observers T.
   A. Pruyne, B. M. Africano, E. J. Christensen, G. A. Farneth, D. C. Fuls,
   A. R. Gibbs, A. D. Grauer, H. Groeller, J. A. Johnson, R. A. Kowalski, S.
   M. Larson, G. J. Leonard, D. Rankin, R. L. Seaman, F. C. Shelly. 1.5-m
   reflector + 10K CCD.
(H01) Magdalena Ridge Observatory, Socorro  (N33.984833 W107.189333)  US/New
   Mexico.  Observers W. H. Ryan, E. V. Ryan. Measurer W. H. Ryan. 2.4-m
   f/8.9 reflector + CCD.
(I52) Steward Observatory, Mt. Lemmon Station  (N32.442547 W110.788920)
   US/Arizona.  Observers T. A. Pruyne, B. M. Africano, E. J. Christensen, G.
   A. Farneth, D. C. Fuls, A. R. Gibbs, A. D. Grauer, H. Groeller, J. A.
   Johnson, R. A. Kowalski, S. M. Larson, G. J. Leonard, D. Rankin, R. L.
   Seaman, F. C. Shelly. 1.0-m reflector + CCD.

Orbital elements:  C14VHC2
   Perihelion 2019 Sep 24.523470 +/- 0.0029 TT = 12:33:47 (JD 2458751.023470)
Epoch 2019 Oct 10.0 TT = JDT 2458766.5   Earth MOID: 0.0073   Ma: 0.0538
M   7.26006602 +/- 0.020            (J2000 ecliptic)          AutoNEOCP
n   0.46910167 +/- 0.00137          Peri.  156.51065 +/- 0.011
a   1.64043135 +/- 0.0032           Node   202.40190 +/- 0.0026
e   0.3887839 +/- 0.00119           Incl.    1.35093 +/- 0.0034
P   2.10/767.41d           H 28.9   G  0.15   U  8.3  
q 1.00265800 +/- 4.85e-6    Q 2.27820471 +/- 0.00641
From 14 observations 2019 Oct. 8-10; mean residual 0".27
Residuals in arcseconds: 
191008 G96  .03-  .04+    191008 H01  .15-  .15-    191009 G96  .05-  .40+    
191008 G96  .17-  .10-    191008 H01  .16-  .21-    191010 I52  .61-  .14+    
191008 G96  .73+  .03-    191009 G96  .14-  .08+    191010 I52  .02+  .43-    
191008 H01  .08+  .31+    191009 G96  .03+  .12+    191010 I52  .51+  .04-    
191008 H01  .28-  .13-    191009 G96  .33+  .16+    

Ephemerides (geocentric):
Date (UTC) HH   RA              Dec         delta   r     elong  mag " sig PA
---- -- -- --  -------------   -----------  ------ ------ -----  --- ---- ---
2019 10 10 19  02 54 59.648   +22 12 16.88  .02219 1.0176 148.7 22.0 .312   3
2019 10 10 20  02 55 42.434   +22 10 17.61  .02231 1.0177 148.6 22.0 .318 178
2019 10 10 21  02 56 24.721   +22 08 18.92  .02244 1.0177 148.5 22.0 .327 173
2019 10 10 22  02 57 06.517   +22 06 20.82  .02256 1.0178 148.4 22.0 .338 169
2019 10 10 23  02 57 47.828   +22 04 23.31  .02268 1.0179 148.3 22.1 .350 164
2019 10 11 00  02 58 28.662   +22 02 26.39  .02281 1.0180 148.2 22.1 .365 161
2019 10 11 01  02 59 09.027   +22 00 30.07  .02293 1.0180 148.2 22.1 .381 157
2019 10 11 02  02 59 48.930   +21 58 34.35  .02306 1.0181 148.1 22.1 .399 154
2019 10 11 03  03 00 28.377   +21 56 39.24  .02318 1.0182 148.0 22.1 .418 151
2019 10 11 04  03 01 07.376   +21 54 44.74  .02331 1.0183 147.9 22.1 .438 148
2019 10 11 05  03 01 45.932   +21 52 50.85  .02343 1.0184 147.8 22.1 .459 146
2019 10 11 06  03 02 24.054   +21 50 57.57  .02356 1.0184 147.7 22.2 .481 143
2019 10 11 07  03 03 01.747   +21 49 04.91  .02368 1.0185 147.7 22.2 .504 141
2019 10 11 08  03 03 39.017   +21 47 12.87  .02381 1.0186 147.6 22.2 .528 139
2019 10 11 09  03 04 15.872   +21 45 21.45  .02394 1.0187 147.5 22.2 .552 138
2019 10 11 10  03 04 52.317   +21 43 30.64  .02406 1.0187 147.4 22.2 .576 136
2019 10 11 11  03 05 28.358   +21 41 40.46  .02419 1.0188 147.3 22.2 .602 135
2019 10 11 12  03 06 04.001   +21 39 50.90  .02432 1.0189 147.3 22.2 .627 133
2019 10 11 13  03 06 39.252   +21 38 01.96  .02444 1.0190 147.2 22.2 .653 132
2019 10 11 14  03 07 14.116   +21 36 13.64  .02457 1.0191 147.1 22.3 .679 131
2019 10 11 15  03 07 48.601   +21 34 25.94  .02470 1.0191 147.0 22.3 .706 130
2019 10 11 16  03 08 22.710   +21 32 38.87  .02482 1.0192 147.0 22.3 .732 129
2019 10 11 17  03 08 56.449   +21 30 52.41  .02495 1.0193 146.9 22.3 .759 128
2019 10 11 18  03 09 29.824   +21 29 06.58  .02508 1.0194 146.8 22.3 .786 127
2019 10 11 19  03 10 02.840   +21 27 21.36  .02521 1.0195 146.8 22.3 .814 127
2019 10 11 20  03 10 35.502   +21 25 36.76  .02533 1.0195 146.7 22.3 .841 126
2019 10 11 21  03 11 07.815   +21 23 52.78  .02546 1.0196 146.6 22.4 .868 125
2019 10 11 22  03 11 39.784   +21 22 09.42  .02559 1.0197 146.6 22.4 .896 125
2019 10 11 23  03 12 11.414   +21 20 26.67  .02572 1.0198 146.5 22.4 .924 124
2019 10 12 00  03 12 42.710   +21 18 44.53  .02584 1.0199 146.4 22.4 .951 124
2019 10 12 01  03 13 13.677   +21 17 03.00  .02597 1.0199 146.4 22.4 .979 123
2019 10 12 02  03 13 44.319   +21 15 22.08  .02610 1.0200 146.3 22.4 1.01 123
2019 10 12 03  03 14 14.640   +21 13 41.76  .02623 1.0201 146.3 22.4 1.03 122
2019 10 12 04  03 14 44.646   +21 12 02.05  .02636 1.0202 146.2 22.4 1.06 122
2019 10 12 05  03 15 14.340   +21 10 22.94  .02649 1.0203 146.1 22.5 1.09 121
2019 10 12 06  03 15 43.727   +21 08 44.43  .02662 1.0203 146.1 22.5 1.12 121
2019 10 12 07  03 16 12.812   +21 07 06.52  .02675 1.0204 146.0 22.5 1.15 121
2019 10 12 08  03 16 41.597   +21 05 29.21  .02688 1.0205 146.0 22.5 1.17 120
2019 10 12 09  03 17 10.089   +21 03 52.48  .02700 1.0206 145.9 22.5 1.20 120
2019 10 12 10  03 17 38.289   +21 02 16.35  .02713 1.0207 145.9 22.5 1.23 120
2019 10 12 11  03 18 06.203   +21 00 40.80  .02726 1.0208 145.8 22.5 1.26 119
2019 10 12 12  03 18 33.835   +20 59 05.84  .02739 1.0208 145.8 22.5 1.28 119
2019 10 12 13  03 19 01.188   +20 57 31.45  .02752 1.0209 145.7 22.5 1.31 119
2019 10 12 14  03 19 28.265   +20 55 57.65  .02765 1.0210 145.7 22.6 1.34 119
2019 10 12 15  03 19 55.072   +20 54 24.42  .02778 1.0211 145.6 22.6 1.37 119
2019 10 12 16  03 20 21.610   +20 52 51.76  .02791 1.0212 145.6 22.6 1.39 118
2019 10 12 17  03 20 47.885   +20 51 19.67  .02804 1.0213 145.5 22.6 1.42 118
2019 10 12 18  03 21 13.899   +20 49 48.15  .02817 1.0213 145.5 22.6 1.45 118